TimeCST,TemperatureF,Dew PointF,Humidity,Sea Level PressureIn,VisibilityMPH,Wind Direction,Wind SpeedMPH,Gust SpeedMPH,PrecipitationIn,Events,Conditions,WindDirDegrees,DateUTC
12:53 AM,46.0,39.0,76,30.07,10.0,NW,4.6,-,N/A,,Clear,310,2013-02-19 06:53:00
1:53 AM,45.0,36.0,71,30.10,10.0,NNW,5.8,-,N/A,,Clear,330,2013-02-19 07:53:00
2:53 AM,43.0,35.1,74,30.12,10.0,NW,6.9,-,N/A,,Clear,320,2013-02-19 08:53:00
3:53 AM,37.9,34.0,86,30.13,10.0,NNW,4.6,-,N/A,,Clear,330,2013-02-19 09:53:00
4:53 AM,37.0,34.0,89,30.16,10.0,NNW,4.6,-,N/A,,Clear,330,2013-02-19 10:53:00
5:53 AM,35.1,32.0,89,30.21,10.0,NNW,4.6,-,N/A,,Clear,330,2013-02-19 11:53:00
6:53 AM,34.0,30.9,89,30.23,10.0,NNW,3.5,-,N/A,,Clear,340,2013-02-19 12:53:00
7:53 AM,39.0,32.0,76,30.26,10.0,NNW,5.8,-,N/A,,Clear,330,2013-02-19 13:53:00
8:53 AM,43.0,28.0,56,30.30,10.0,North,11.5,16.1,N/A,,Clear,360,2013-02-19 14:53:00
9:53 AM,46.0,27.0,47,30.31,10.0,North,9.2,-,N/A,,Clear,350,2013-02-19 15:53:00
10:53 AM,48.9,26.1,41,30.33,3.0,North,6.9,-,N/A,,Haze,360,2013-02-19 16:53:00
12:53 PM,54.0,28.0,37,30.30,10.0,North,8.1,-,N/A,,Clear,10,2013-02-19 18:53:00
1:53 PM,57.9,28.9,33,30.28,10.0,Variable,6.9,-,N/A,,Clear,0,2013-02-19 19:53:00
2:53 PM,57.0,27.0,32,30.25,10.0,Calm,Calm,-,N/A,,Clear,0,2013-02-19 20:53:00
3:53 PM,57.9,25.0,28,30.25,10.0,North,6.9,-,N/A,,Clear,360,2013-02-19 21:53:00
4:53 PM,57.0,24.1,28,30.23,10.0,NNW,5.8,-,N/A,,Clear,340,2013-02-19 22:53:00
6:53 PM,43.0,33.1,68,30.26,10.0,Calm,Calm,-,N/A,,Clear,0,2013-02-20 00:53:00
7:53 PM,39.9,32.0,73,30.25,10.0,Calm,Calm,-,N/A,,Clear,0,2013-02-20 01:53:00
8:53 PM,37.9,33.1,83,30.26,10.0,Calm,Calm,-,N/A,,Clear,0,2013-02-20 02:53:00
9:53 PM,39.0,34.0,82,30.26,10.0,NE,3.5,-,N/A,,Clear,50,2013-02-20 03:53:00
10:53 PM,39.9,33.1,77,30.28,10.0,Calm,Calm,-,N/A,,Clear,0,2013-02-20 04:53:00
11:53 PM,41.0,36.0,82,30.27,10.0,Calm,Calm,-,N/A,,Clear,0,2013-02-20 05:53:00